DW4047 Weather Reports


Display with metric or nautical units.
time (UTC)temp
F
wind
direction
speed
MPH
gust
MPH
rain 1hr
in
rain 24hr
in
rain mn
in
humidity
%
barometer
mb
20260507120631 51 341 2.0 6.0 0.00 0.18 0.02 24 982.7
20260507120129 51 337 0.0 6.0 0.00 0.18 0.02 24 982.6
20260507115629 51 327 2.0 5.0 0.00 0.19 0.02 18 982.6
20260507114629 51 339 0.0 3.0 0.00 0.19 0.02 14 982.7
20260507114128 51 338 0.0 4.0 0.00 0.19 0.02 21 982.6
20260507113631 51 333 1.0 4.0 0.00 0.19 0.02 23 982.6
20260507113132 51 323 1.0 3.0 0.00 0.19 0.02 22 982.7
20260507112633 51 323 1.0 3.0 0.00 0.19 0.02 25 982.6
20260507111632 51 322 0.0 4.0 0.00 0.19 0.02 25 982.6
20260507111129 51 309 0.0 6.0 0.00 0.19 0.02 21 982.6
20260507110629 51 25 1.0 6.0 0.00 0.19 0.02 20 982.5
20260507110129 51 32 1.0 5.0 0.00 0.19 0.02 20 982.6
20260507105629 51 335 1.0 4.0 0.00 0.19 0.02 18 982.5
20260507105129 51 334 1.0 4.0 0.00 0.19 0.02 18 982.3
20260507104628 50 343 0.0 4.0 0.00 0.19 0.02 19 982.2
20260507103631 51 333 0.0 4.0 0.00 0.19 0.02 16 982.1
20260507103132 51 334 1.0 4.0 0.00 0.19 0.02 9 982.2
20260507102632 51 326 1.0 4.0 0.00 0.19 0.02 7 982.2
20260507102130 51 339 1.0 5.0 0.00 0.19 0.02 5 982.1
20260507101630 51 339 1.0 5.0 0.00 0.19 0.02 6 982.0
20260507100628 51 346 1.0 5.0 0.00 0.19 0.02 4 981.9
20260507100124 51 331 0.0 6.0 0.00 0.19 0.02 3 981.8
20260507095114 51 346 2.0 4.0 0.00 0.19 0.02 2 981.7
20260507094614 51 336 1.0 4.0 0.00 0.19 0.02 100 981.8
20260507094103 51 332 0.0 4.0 0.00 0.19 0.02 100 981.7
20260507093604 51 336 2.0 8.0 0.00 0.19 0.02 100 981.7
20260507093101 51 5 2.0 8.0 0.00 0.19 0.02 100 981.8
20260507092601 51 321 1.0 6.0 0.00 0.19 0.02 100 981.5
20260507092101 51 345 1.0 9.0 0.00 0.19 0.02 100 981.7
20260507091602 51 332 2.0 9.0 0.00 0.19 0.02 100 981.8
20260507091059 51 338 1.0 10.0 0.00 0.19 0.02 100 981.8
20260507090558 51 349 0.0 10.0 0.00 0.19 0.02 100 981.6
20260507090058 51 336 1.0 5.0 0.00 0.19 0.02 100 981.6
20260507085553 52 348 0.0 6.0 0.00 0.19 0.02 100 981.5
20260507085054 52 0 2.0 6.0 0.00 0.19 0.02 100 981.6
20260507084546 52 309 1.0 5.0 0.00 0.19 0.02 100 981.4
20260507084050 52 334 1.0 5.0 0.00 0.19 0.02 100 981.4
20260507083548 52 346 1.0 8.0 0.00 0.19 0.02 100 981.4
20260507083046 52 352 1.0 8.0 0.00 0.19 0.02 100 981.4
20260507082546 52 328 1.0 6.0 0.00 0.19 0.02 100 981.4
20260507082041 52 5 0.0 0.0 0.00 0.19 0.02 100 981.2
20260507081542 52 5 0.0 0.0 0.00 0.19 0.02 100 981.1
20260507081032 52 5 0.0 0.0 0.00 0.19 0.02 100 981.0
20260507080032 52 5 0.0 1.0 0.01 0.19 0.02 100 981.0
20260507075529 52 5 0.0 1.0 0.01 0.18 0.02 100 980.9
20260507075029 52 12 0.0 4.0 0.01 0.18 0.02 100 981.1
20260507074531 52 345 3.0 4.0 0.01 0.18 0.02 100 981.1
20260507074030 53 331 0.0 0.0 0.01 0.18 0.02 100 981.1
20260507073531 53 331 0.0 3.0 0.01 0.18 0.02 100 980.9
20260507072532 53 349 0.0 3.0 0.01 0.18 0.02 100 981.0
20260507072031 53 344 0.0 3.0 0.02 0.18 0.02 100 981.1
20260507071031 53 20 0.0 4.0 0.02 0.18 0.02 100 981.3
20260507070529 53 340 0.0 2.0 0.02 0.18 0.02 100 981.4
20260507070029 54 304 0.0 1.0 0.01 0.18 0.01 100 981.5
20260507065529 54 304 0.0 1.0 0.01 0.17 0.01 100 981.5
20260507064531 54 296 0.0 2.0 0.01 0.17 0.01 100 981.3
20260507064030 55 290 0.0 2.0 0.01 0.17 0.01 100 981.3
20260507062531 55 19 0.0 1.0 0.01 0.17 0.01 100 981.5
20260507062032 55 19 0.0 0.0 0.00 0.17 0.00 100 981.7
20260507061529 55 19 0.0 0.0 0.00 0.17 0.00 100 981.6
20260507060529 55 19 0.0 6.0 0.00 0.17 0.00 100 981.5
20260507060028 55 333 0.0 2.0 0.00 0.17 0.00 100 981.5
20260507055531 55 332 0.0 4.0 0.00 0.17 0.00 100 981.4
20260507055029 55 325 0.0 4.0 0.00 0.17 0.00 100 981.5
20260507054530 55 342 0.0 3.0 0.00 0.17 0.00 100 981.3
20260507054031 55 335 0.0 3.0 0.00 0.17 0.00 100 981.4
20260507053530 55 334 0.0 5.0 0.00 0.17 0.00 100 981.3
20260507053029 55 344 0.0 5.0 0.00 0.17 0.00 100 981.5
20260507052530 55 352 0.0 2.0 0.00 0.17 0.00 100 981.3
20260507052031 55 324 0.0 5.0 0.00 0.17 0.00 100 981.4
20260507051532 55 292 1.0 5.0 0.00 0.17 0.00 100 981.2
20260507050030 56 332 1.0 5.0 0.00 0.17 0.00 100 981.7
20260507045519 56 352 2.0 5.0 0.00 0.17 0.00 100 981.6
20260507045020 56 327 1.0 3.0 0.00 0.17 0.00 100 981.4
20260507044515 56 18 0.0 4.0 0.00 0.17 0.00 100 981.6
20260507043508 56 324 1.0 6.0 0.00 0.17 0.00 100 981.7
20260507043004 56 338 1.0 6.0 0.00 0.17 0.00 100 981.5
20260507042004 56 315 1.0 6.0 0.00 0.17 0.00 100 981.1
20260507041502 56 9 2.0 6.0 0.00 0.17 0.00 100 981.2
20260507041002 56 350 0.0 2.0 0.00 0.17 0.00 100 980.9
20260507040509 57 329 0.0 6.0 0.00 0.17 0.00 100 981.2
20260507040009 57 352 0.0 6.0 0.00 0.17 0.00 100 981.3
20260507035503 57 49 1.0 4.0 0.00 0.17 0.17 100 981.0
20260507034504 57 336 0.0 3.0 0.00 0.17 0.17 100 981.0
20260507034001 57 330 1.0 12.0 0.00 0.17 0.17 100 981.1
20260507033504 58 10 1.0 12.0 0.00 0.17 0.17 100 980.8
20260507033001 58 314 2.0 6.0 0.00 0.17 0.17 100 980.8
20260507032502 58 352 2.0 6.0 0.00 0.17 0.17 100 980.7
20260507031503 59 0 0.0 2.0 0.00 0.17 0.17 100 980.7
20260507030959 59 336 0.0 3.0 0.00 0.17 0.17 100 980.8
20260507030451 59 333 1.0 4.0 0.00 0.17 0.17 100 981.2
20260507025954 59 18 0.0 4.0 0.00 0.17 0.17 100 980.7
20260507025449 59 346 2.0 4.0 0.00 0.17 0.17 100 980.8
20260507024950 59 316 1.0 4.0 0.00 0.17 0.17 100 980.4
20260507024440 59 328 0.0 4.0 0.00 0.17 0.17 100 980.4
20260507023941 59 325 0.0 4.0 0.00 0.17 0.17 100 980.6
20260507023435 59 329 1.0 3.0 0.00 0.17 0.17 100 980.5
20260507022934 59 333 0.0 1.0 0.00 0.17 0.17 100 980.6
20260507022429 59 334 0.0 1.0 0.00 0.17 0.17 100 980.6
20260507021931 59 327 0.0 1.0 0.00 0.17 0.17 100 980.5
20260507021433 60 327 0.0 1.0 0.00 0.17 0.17 100 980.4
20260507020929 60 327 0.0 1.0 0.00 0.17 0.17 100 980.5
20260507015929 60 323 0.0 3.0 0.00 0.17 0.17 100 980.5
20260507015430 60 322 0.0 3.0 0.00 0.17 0.17 100 980.6
20260507014930 60 302 0.0 2.0 0.00 0.17 0.17 100 980.4
20260507014429 60 0 0.0 3.0 0.00 0.17 0.17 100 980.4
20260507013930 61 332 0.0 3.0 0.00 0.17 0.17 100 980.4
20260507013429 61 340 1.0 3.0 0.00 0.17 0.17 100 980.6
20260507012931 61 326 0.0 3.0 0.00 0.17 0.17 100 980.6
20260507012429 61 9 0.0 3.0 0.00 0.17 0.17 100 980.4
20260507011934 62 311 0.0 4.0 0.01 0.17 0.17 100 980.9
20260507011429 62 337 0.0 4.0 0.01 0.17 0.17 100 980.8
20260507010929 62 347 0.0 5.0 0.01 0.17 0.17 100 980.7
20260507010429 63 336 0.0 5.0 0.01 0.17 0.17 100 980.6
20260507005432 63 318 1.0 8.0 0.01 0.16 0.17 100 980.7
20260507004430 65 299 2.0 6.0 0.01 0.16 0.17 100 980.6
20260507003930 65 335 1.0 5.0 0.01 0.16 0.17 100 980.4
20260507003429 66 336 0.0 2.0 0.02 0.16 0.17 100 980.6
20260507002926 66 346 0.0 1.0 0.02 0.16 0.17 100 980.1
20260507001923 66 346 0.0 0.0 0.01 0.16 0.16 100 980.1
20260507000906 66 346 0.0 0.0 0.01 0.16 0.16 100 980.1
20260507000401 67 346 0.0 0.0 0.01 0.16 0.16 100 979.7
20260506235903 67 346 0.0 0.0 0.01 0.15 0.16 100 979.8
20260506235401 67 346 0.0 0.0 0.01 0.15 0.16 100 979.6
20260506234904 67 346 0.0 0.0 0.01 0.15 0.16 100 979.5
20260506234400 67 346 0.0 3.0 0.01 0.15 0.16 100 979.3
20260506233902 68 346 0.0 3.0 0.00 0.15 0.15 100 979.1
20260506233402 68 227 0.0 0.0 0.00 0.15 0.15 100 979.2
20260506232902 68 227 0.0 0.0 0.00 0.15 0.15 100 979.0
20260506232403 68 227 0.0 0.0 0.00 0.15 0.15 100 979.0
20260506231904 68 227 0.0 2.0 0.00 0.15 0.15 100 979.0
20260506231403 68 227 0.0 2.0 0.00 0.15 0.15 100 978.9
20260506230900 68 227 0.0 0.0 0.00 0.15 0.15 100 978.8
20260506230400 68 227 0.0 1.0 0.00 0.15 0.15 100 978.9
20260506225901 68 227 0.0 3.0 0.00 0.15 0.15 100 978.8
20260506225401 68 227 1.0 3.0 0.00 0.15 0.15 100 978.8
20260506224901 68 273 0.0 3.0 0.00 0.15 0.15 100 978.9
20260506224358 68 309 0.0 3.0 0.00 0.15 0.15 100 979.0
20260506223901 68 315 0.0 3.0 0.00 0.15 0.15 100 978.9
20260506223357 68 265 0.0 3.0 0.00 0.15 0.15 100 978.7
20260506222847 68 188 1.0 3.0 0.00 0.15 0.15 100 978.8
20260506222343 68 188 1.0 5.0 0.00 0.15 0.15 100 979.0
20260506221838 68 184 0.0 5.0 0.00 0.15 0.15 100 978.9
20260506221333 68 184 1.0 3.0 0.00 0.15 0.15 100 978.8
20260506220330 68 184 2.0 4.0 0.00 0.15 0.15 100 978.9
20260506215831 67 171 0.0 1.0 0.00 0.15 0.15 100 979.0
20260506214830 67 171 0.0 2.0 0.00 0.15 0.15 100 979.0
20260506214321 67 171 0.0 2.0 0.00 0.15 0.15 100 978.7
20260506213812 67 151 0.0 2.0 0.00 0.15 0.15 100 978.8
20260506213305 67 151 0.0 2.0 0.00 0.15 0.15 100 978.7
20260506212805 67 148 0.0 2.0 0.00 0.15 0.15 100 978.6
20260506212306 67 223 1.0 2.0 0.00 0.15 0.15 100 978.5
20260506211804 67 217 0.0 0.0 0.00 0.15 0.15 100 978.5
20260506211305 67 217 0.0 2.0 0.00 0.15 0.15 100 978.5
20260506210801 67 217 0.0 3.0 0.00 0.15 0.15 100 978.4
20260506205804 68 209 0.0 2.0 0.00 0.15 0.15 100 978.3
20260506205305 68 250 0.0 2.0 0.00 0.15 0.15 100 978.3
20260506204803 68 221 0.0 3.0 0.00 0.15 0.15 100 978.2
20260506204303 68 221 0.0 3.0 0.00 0.15 0.15 100 978.2
20260506203759 68 221 0.0 3.0 0.00 0.15 0.15 100 978.2
20260506203301 68 224 0.0 3.0 0.00 0.15 0.15 100 978.1
20260506202757 68 219 1.0 4.0 0.00 0.15 0.15 100 978.4
20260506202257 68 188 1.0 4.0 0.00 0.15 0.15 100 978.4
20260506201750 68 193 1.0 3.0 0.00 0.15 0.15 100 978.3
20260506200746 68 188 0.0 4.0 0.00 0.15 0.15 100 978.3
20260506200243 68 188 0.0 3.0 0.00 0.15 0.15 100 978.4
20260506195737 68 188 0.0 3.0 0.00 0.15 0.15 100 978.4
20260506195239 68 9 0.0 4.0 0.00 0.15 0.15 100 978.3
20260506194739 68 9 0.0 5.0 0.00 0.15 0.15 100 978.4
20260506194235 68 214 0.0 5.0 0.00 0.15 0.15 100 978.5
20260506193730 68 175 0.0 4.0 0.00 0.15 0.15 100 978.4
20260506193228 68 224 1.0 4.0 0.00 0.15 0.15 100 978.4
20260506192731 68 237 0.0 5.0 0.00 0.15 0.15 100 978.3
20260506192229 67 230 1.0 6.0 0.00 0.15 0.15 100 978.3
20260506191729 68 246 2.0 6.0 0.00 0.15 0.15 100 978.2
20260506191228 68 217 1.0 6.0 0.00 0.15 0.15 100 978.4
20260506190725 67 220 1.0 6.0 0.00 0.15 0.15 100 978.3
20260506190226 67 136 0.0 6.0 0.00 0.15 0.15 100 978.4
20260506185728 67 225 3.0 6.0 0.00 0.15 0.15 100 978.5
20260506185222 67 236 1.0 6.0 0.00 0.15 0.15 100 978.5
20260506184233 67 188 2.0 8.0 0.00 0.15 0.15 100 978.6
20260506183719 67 184 2.0 8.0 0.00 0.15 0.15 100 978.6
20260506183221 67 235 2.0 6.0 0.00 0.15 0.15 100 978.7
20260506182716 67 122 3.0 6.0 0.00 0.15 0.15 100 978.6
20260506182217 66 207 0.0 4.0 0.00 0.15 0.15 100 978.7
20260506181712 66 165 1.0 7.0 0.00 0.15 0.15 100 978.7
20260506180712 65 291 2.0 12.0 0.00 0.15 0.15 100 978.7
20260506180205 65 235 2.0 12.0 0.00 0.15 0.15 100 978.8
20260506175208 65 243 3.0 8.0 0.00 0.15 0.15 100 978.9
20260506174205 64 219 1.0 9.0 0.00 0.15 0.15 100 978.9
20260506173703 64 125 4.0 9.0 0.00 0.15 0.15 100 978.9
20260506172702 63 223 2.0 9.0 0.00 0.15 0.15 100 978.9
20260506172202 63 186 2.0 9.0 0.00 0.15 0.15 100 978.8
20260506171702 63 157 4.0 7.0 0.00 0.15 0.15 100 978.9
20260506171203 63 202 1.0 7.0 0.00 0.15 0.15 100 978.9
20260506170703 62 145 2.0 8.0 0.00 0.15 0.15 100 979.0
20260506170204 62 266 3.0 8.0 0.00 0.15 0.15 100 978.9
20260506165702 62 194 3.0 11.0 0.00 0.15 0.15 100 979.0
20260506165205 62 172 4.0 11.0 0.00 0.15 0.15 100 978.9
20260506164704 62 260 3.0 8.0 0.00 0.15 0.15 100 978.8
20260506164205 62 248 2.0 8.0 0.00 0.15 0.15 100 978.9
20260506163702 61 200 4.0 9.0 0.00 0.15 0.15 100 978.9
20260506162702 61 255 4.0 12.0 0.00 0.15 0.15 100 979.1
20260506162202 61 159 3.0 8.0 0.00 0.15 0.15 100 979.0
20260506161702 61 181 1.0 8.0 0.00 0.15 0.15 100 978.9
20260506161203 61 213 4.0 10.0 0.00 0.15 0.15 100 979.0
20260506160703 61 121 2.0 10.0 0.00 0.15 0.15 100 979.1
20260506160203 61 170 2.0 11.0 0.00 0.15 0.15 100 979.1
20260506154704 60 163 3.0 10.0 0.01 0.15 0.15 100 979.2
20260506154203 61 140 2.0 11.0 0.02 0.15 0.15 100 979.1
20260506153704 60 118 5.0 11.0 0.02 0.15 0.15 100 979.0
20260506153201 60 221 5.0 9.0 0.02 0.15 0.15 100 978.9
20260506152701 60 227 4.0 11.0 0.03 0.15 0.15 100 978.9
20260506151701 60 244 4.0 12.0 0.04 0.15 0.15 100 979.2
20260506151201 60 152 5.0 11.0 0.04 0.15 0.15 100 979.3
20260506150201 60 273 4.0 10.0 0.04 0.15 0.15 100 979.2
20260506145703 60 168 3.0 12.0 0.04 0.11 0.15 100 979.4
20260506145159 60 166 4.0 13.0 0.04 0.11 0.14 100 979.7
20260506144659 60 140 3.0 13.0 0.04 0.11 0.13 100 979.8
20260506144202 60 171 2.0 7.0 0.04 0.11 0.13 100 979.7
20260506143658 60 188 1.0 7.0 0.04 0.11 0.13 100 979.9
20260506143155 60 227 4.0 10.0 0.03 0.11 0.12 100 979.8
20260506142653 60 218 4.0 10.0 0.04 0.11 0.12 100 979.6
20260506142151 60 132 2.0 8.0 0.03 0.11 0.11 100 979.4
20260506141651 60 27 3.0 10.0 0.04 0.11 0.11 100 979.3
20260506141149 60 178 2.0 10.0 0.04 0.11 0.11 100 979.3
20260506140143 60 146 1.0 11.0 0.04 0.11 0.11 100 979.6
20260506135643 60 206 4.0 11.0 0.05 0.06 0.11 100 979.6
20260506135146 60 171 3.0 9.0 0.04 0.06 0.10 100 979.5
20260506134644 60 187 3.0 12.0 0.05 0.06 0.10 100 979.4
20260506134145 60 187 4.0 12.0 0.04 0.06 0.09 100 979.3
20260506133643 61 207 3.0 9.0 0.05 0.06 0.09 100 979.7
20260506133138 60 198 2.0 8.0 0.06 0.06 0.09 100 979.9
20260506132639 60 143 2.0 7.0 0.05 0.06 0.08 100 980.0
20260506132139 60 175 2.0 7.0 0.06 0.06 0.08 100 980.0
20260506131636 61 146 3.0 6.0 0.05 0.06 0.07 100 980.0
20260506131135 61 213 1.0 7.0 0.06 0.06 0.07 100 979.9
20260506130635 60 242 3.0 9.0 0.06 0.06 0.07 100 979.9
20260506125631 61 232 4.0 6.0 0.06 0.00 0.06 100 980.1
20260506125131 61 181 2.0 7.0 0.06 0.00 0.06 100 979.8
20260506124631 61 140 1.0 7.0 0.05 0.00 0.05 100 979.7
20260506124131 61 161 2.0 6.0 0.05 0.00 0.05 100 979.7
20260506123630 61 188 1.0 7.0 0.04 0.00 0.04 100 979.8
20260506123132 62 137 2.0 7.0 0.03 0.00 0.03 100 979.9
20260506122632 62 188 1.0 7.0 0.03 0.00 0.03 100 979.9
20260506122132 62 122 2.0 7.0 0.02 0.00 0.02 100 980.0
20260506121630 62 217 2.0 8.0 0.02 0.00 0.02 100 980.1
20260506121130 62 224 2.0 8.0 0.01 0.00 0.01 100 980.1